Prudhoe Bay, AK

12:36 PM AKST on February 11, 2016 (GMT -0900)
Deadhorse

Weather History for PASC - March, 2014

Change the Weather History Date:

Wednesday, March 12, 2014

  Actual Average Record
Temperature  
Mean Temperature -18 °F -  
Max Temperature -11 °F - - ()
Min Temperature -25 °F - - ()
Degree Days  
Heating Degree Days 83    
Moisture  
Dew Point -25 °F    
Average Humidity 73    
Maximum Humidity 79    
Minimum Humidity 67    
Precipitation  
Precipitation 0.00 in - - ()
Sea Level Pressure  
Sea Level Pressure 29.50 in    
Wind  
Wind Speed 3 mph (SW)    
Max Wind Speed 7 mph    
Max Gust Speed -    
Visibility 10 miles    
Events      
T = Trace of Precipitation, MM = Missing Value Source: NWS Daily Summary

Daily Weather History Graph

Daily Weather History Graph

Search for Another Location

Airport or City:

Trip Planner

Search our weather history database for the weather conditions in past years. The results will help you decide how hot, cold, wet, or windy it might be!

Date:

Astronomy

Mar. 12, 2014 Rise Set
Actual Time 8:28 AM AKDT 7:40 PM AKDT
Civil Twilight 7:27 AM AKDT 8:41 PM AKDT
Nautical Twilight 6:14 AM AKDT 9:55 PM AKDT
Astronomical Twilight 4:46 AM AKDT 11:25 PM AKDT
Moon 2:42 PM AKDT (3/12) 7:50 AM AKDT (3/12)
Length of Visible Light 13h 13m
Length of Day
11h 11m
Waxing Gibbous, 86% of the Moon is Illuminated
Mar 12
Waxing Gibbous
Mar 16
Full
Mar 23
Last Quarter
Mar 30
New
Apr 7
First Quarter

Hourly Weather History & Observations

Time (AKDT) Temp. Windchill Dew Point Humidity Pressure Visibility Wind Dir Wind Speed Gust Speed Precip Events Conditions
12:53 AM -24.0 °F -37.9 °F -29.9 °F 74% 29.44 in 10.0 mi South 4.6 mph - N/A   Clear
1:53 AM -24.0 °F - -29.9 °F 74% 29.44 in 10.0 mi Calm Calm - N/A   Scattered Clouds
2:53 AM -24.0 °F -35.2 °F -31.0 °F 70% 29.44 in 10.0 mi South 3.5 mph - N/A   Scattered Clouds
3:53 AM -25.1 °F -39.1 °F -32.1 °F 70% 29.44 in 10.0 mi WSW 4.6 mph - N/A   Clear
4:53 AM -25.1 °F -36.5 °F -32.1 °F 70% 29.45 in 10.0 mi WSW 3.5 mph - N/A   Scattered Clouds
5:53 AM -23.1 °F - -29.0 °F 74% 29.44 in 10.0 mi Calm Calm - N/A   Overcast
6:53 AM -22.0 °F - -27.9 °F 74% 29.45 in 10.0 mi Calm Calm - N/A   Overcast
7:53 AM -20.9 °F - -27.9 °F 70% 29.44 in 10.0 mi Calm Calm - N/A   Mostly Cloudy
8:53 AM -22.0 °F - -27.9 °F 74% 29.45 in 10.0 mi Calm Calm - N/A   Clear
9:53 AM -20.9 °F - -27.9 °F 70% 29.45 in 10.0 mi Calm Calm - N/A   Scattered Clouds
10:53 AM -18.9 °F - -25.1 °F 74% 29.46 in 10.0 mi Calm Calm - N/A   Mostly Cloudy
11:53 AM -17.0 °F -27.2 °F -23.1 °F 74% 29.48 in 10.0 mi SW 3.5 mph - N/A   Mostly Cloudy
12:53 PM -16.1 °F -26.2 °F -24.0 °F 67% 29.49 in 10.0 mi West 3.5 mph - N/A   Scattered Clouds
1:53 PM -15.0 °F -25.0 °F -23.1 °F 67% 29.50 in 10.0 mi SW 3.5 mph - N/A   Overcast
2:53 PM -13.0 °F - -20.0 °F 71% 29.51 in 10.0 mi Calm Calm - N/A   Mostly Cloudy
3:53 PM -11.0 °F - -18.9 °F 68% 29.52 in 10.0 mi Calm Calm - N/A   Scattered Clouds
4:53 PM -11.9 °F -21.5 °F -18.0 °F 74% 29.54 in 10.0 mi SW 3.5 mph - N/A   Scattered Clouds
5:53 PM -13.0 °F -28.6 °F -20.0 °F 71% 29.55 in 10.0 mi SW 6.9 mph - N/A   Mostly Cloudy
6:53 PM -14.1 °F -23.9 °F -18.9 °F 79% 29.55 in 10.0 mi SSW 3.5 mph - N/A   Scattered Clouds
7:53 PM -15.0 °F -27.4 °F -20.0 °F 78% 29.55 in 10.0 mi SSW 4.6 mph - N/A   Mostly Cloudy
8:53 PM -14.1 °F -23.9 °F -20.0 °F 75% 29.56 in 10.0 mi SW 3.5 mph - N/A   Scattered Clouds
9:53 PM -15.0 °F -27.4 °F -20.0 °F 78% 29.57 in 10.0 mi WSW 4.6 mph - N/A   Scattered Clouds
10:53 PM -17.0 °F - -22.0 °F 78% 29.58 in 10.0 mi Calm Calm - N/A   Scattered Clouds
11:53 PM -18.0 °F -28.5 °F -23.1 °F 78% 29.58 in 10.0 mi East 3.5 mph - N/A   Scattered Clouds